Location: Harbor View
(36.2448°N, 86.5797°W)
Time: 07:18:27
(UTC+00:00)

COSMO-SKYMED 1 - Pass Details

Date: 10 March 2021
Orbit: 621 x 623 km, 97.9° (Epoch: 13 April)

Event Time Altitude Azimuth Distance (km) Brightness Sun altitude
Rises 00:26:57 0° 1° (N) 2,908 6.0 -8.5°
Reaches altitude 10° 00:29:19 10° 351° (N) 1,997 5.3 -9.0°
Maximum altitude 00:33:10 32° 289° (WNW) 1,075 4.6 -9.8°
Drops below altitude 10° 00:37:00 10° 226° (SW) 1,984 5.8 -10.5°
Sets 00:39:21 0° 216° (SW) 2,886 6.5 -11.0°
